1496228400.17,40670,20.0,74316.5,12.41,3.07,2.27,0,*4D
1496228401.43,40671,20.0,74314.5,12.37,2.77,2.17,0,*48
1496228402.66,40672,19.94,74308.8,12.37,3.97,3.59,0,*4F
1496228403.87,40673,19.94,74312.8,12.39,4.23,4.31,0,*41
1496228405.08,40674,20.0,74322.8,12.41,3.89,4.11,0,*4C
1496228406.3,40675,20.0,74316.5,12.43,5.77,6.13,0,*48
1496228407.5,40676,20.0,74316.0,12.43,5.77,6.03,0,*4A
1496228408.69,40677,20.0,74318.0,12.43,6.29,6.29,0,*4B
1496228409.92,40678,20.0,74318.8,12.49,6.11,5.81,0,*44
1496228411.16,40679,20.0,74322.0,12.51,5.85,5.27,0,*4E
1496228412.39,40680,20.0,74322.0,12.53,5.37,4.67,0,*46
1496228413.64,40681,20.0,74326.3,12.53,5.05,4.05,0,*42
1496228414.85,40682,20.0,74322.0,12.57,5.49,4.37,0,*4C
1496228416.06,40683,20.0,74324.5,12.55,4.85,3.71,0,*4B
1496228417.29,40684,20.0,74328.3,12.57,4.07,2.85,0,*4E
1496228418.55,40685,20.0,74328.8,12.57,3.11,1.71,0,*47
1496228419.79,40686,20.0,74330.8,12.57,3.93,3.45,0,*4B
1496228421.01,40687,20.0,74332.0,12.65,4.15,4.79,0,*4A
1496228422.22,40688,20.0,74332.3,12.69,3.49,5.59,0,*44
1496228423.43,40689,20.0,74330.5,12.77,1.67,4.85,0,*44
1496228424.68,40690,20.0,74330.0,12.79,1.97,6.35,0,*44
1496228425.93,40691,20.0,74330.8,12.83,0.79,5.73,0,*70
1496228427.15,40692,20.0,74332.8,12.87,-0.37,5.07,0,*53
1496228428.37,40693,20.0,74332.5,12.89,-1.47,4.33,0,*6C
1496228429.56,40694,20.0,74338.3,12.89,-1.71,4.19,0,*66
1496228430.77,40695,20.0,74334.8,12.85,-1.75,4.31,0,*65
1496228432.0,40696,20.0,74332.5,12.87,-1.51,4.67,0,*61
1496228433.18,40697,20.0,74332.5,12.85,-0.41,5.41,0,*57
1496228434.41,40698,20.0,74334.5,12.87,1.05,6.17,0,*46
1496228435.6,40699,20.0,74334.8,12.85,1.79,6.03,0,*4B
1496228436.83,40700,20.0,74328.5,12.85,1.67,5.05,0,*40
1496228438.03,40701,20.0,74330.5,12.85,1.67,4.53,0,*43
1496228439.24,40702,20.0,74330.0,12.81,2.47,4.23,0,*42
1496228440.45,40703,20.0,74328.0,12.81,3.15,4.15,0,*40
1496228441.67,40704,20.0,74324.8,12.81,4.07,4.75,0,*45
1496228442.87,40705,20.0,74326.3,12.79,4.53,4.81,0,*49
1496228444.1,40706,20.0,74324.0,12.79,4.41,4.31,0,*42
1496228445.33,40707,20.0,74326.0,12.79,3.93,3.53,0,*48
1496228446.56,40708,20.0,74330.3,12.77,3.49,2.89,0,*48
1496228447.76,40709,20.0,74328.8,12.77,3.81,3.23,0,*4C
1496228449.0,40710,20.0,74326.8,12.75,3.93,3.07,0,*43
1496228450.21,40711,20.0,74326.5,12.73,4.57,3.41,0,*49
1496228451.44,40712,20.0,74326.0,12.75,3.67,2.27,0,*49
1496228452.65,40713,20.0,74324.5,12.73,2.61,0.91,0,*76
1496228453.86,40714,20.0,74326.5,12.67,1.83,0.01,0,*42
1496228455.1,40715,20.0,74326.0,12.67,0.87,-0.37,0,*6E
1496228456.33,40716,20.0,74324.0,12.65,0.91,0.33,0,*41
1496228457.58,40717,20.0,74330.0,12.63,1.89,2.21,0,*4F
1496228458.8,40718,20.0,74326.8,12.65,2.77,3.89,0,*47
1496228459.98,40719,20.0,74328.0,12.69,2.27,3.81,0,*47
1496228461.2,40720,20.0,74326.3,12.69,0.21,2.21,0,*72
1496228462.42,40721,20.0,74322.8,12.69,1.33,3.25,0,*44
1496228463.66,40722,20.0,74320.3,12.69,1.37,2.69,0,*4A
1496228464.89,40723,20.0,74314.0,12.67,1.25,2.27,0,*4C
1496228466.16,40724,20.0,74312.3,12.67,1.97,2.59,0,*4B
1496228467.36,40725,20.0,74314.3,12.69,3.63,4.05,0,*42
1496228468.63,40726,20.0,74320.0,12.67,3.03,2.81,0,*43
1496228469.89,40727,20.0,74326.3,12.67,2.39,1.47,0,*43
1496228471.13,40728,20.0,74326.8,12.63,1.25,-0.45,0,*58
1496228472.38,40729,20.0,74320.8,12.63,2.01,0.13,0,*72
1496228473.57,40730,20.0,74330.5,12.61,1.79,-0.33,0,*5B
1496228474.81,40731,20.0,74320.3,12.59,-0.23,-2.47,0,*73
1496228476.02,40732,20.0,74324.5,12.55,-0.89,-2.87,0,*70
1496228477.26,40733,20.0,74334.5,12.51,-1.43,-3.47,0,*4F
1496228478.48,40734,20.0,74326.3,12.49,-0.57,-2.19,0,*7F
1496228479.73,40735,20.0,74326.8,12.45,-1.01,-2.23,0,*49
1496228480.97,40736,20.0,74328.8,12.45,-1.35,-2.27,0,*49
1496228482.19,40737,20.0,74324.5,12.45,-1.67,-2.43,0,*4D
1496228483.38,40738,20.0,74328.8,12.43,-2.43,-3.03,0,*44
1496228484.62,40739,20.0,74328.3,12.41,-2.55,-3.31,0,*41
1496228485.81,40740,20.0,74324.3,12.39,-2.19,-3.19,0,*42
1496228487.0,40741,20.0,74318.5,12.39,-3.07,-4.09,0,*4B
1496228488.21,40742,20.0,74322.8,12.39,-3.75,-4.37,0,*40
1496228489.42,40743,20.0,74328.5,12.37,-4.41,-4.13,0,*49
1496228490.65,40744,20.0,74326.3,12.37,-5.51,-4.13,0,*4E
1496228491.85,40745,20.0,74324.8,12.39,-5.55,-2.83,0,*4A
1496228493.06,40746,20.0,74320.5,12.39,-5.43,-1.43,0,*41
1496228494.27,40747,20.0,74318.8,12.43,-5.07,0.01,0,*67
1496228495.46,40748,20.0,74316.0,12.43,-5.97,-0.15,0,*79
1496228496.68,40749,20.0,74312.8,12.49,-6.47,-0.45,0,*79
1496228497.94,40750,20.0,74316.5,12.49,-5.69,0.37,0,*56
1496228499.15,40751,20.0,74314.8,12.51,-5.35,0.29,0,*58
1496228500.36,40752,20.0,74322.8,12.51,-5.27,0.05,0,*66
1496228501.55,40753,20.0,74324.3,12.51,-6.39,-1.33,0,*42
1496228502.77,40754,20.0,74318.3,12.51,-7.65,-2.83,0,*45
1496228503.99,40755,20.0,74318.3,12.45,-6.47,-1.75,0,*4A
1496228505.19,40756,20.0,74322.5,12.43,-6.09,-1.25,0,*40
1496228506.44,40757,20.0,74320.8,12.41,-3.67,0.67,0,*54
1496228507.67,40758,20.0,74320.3,12.41,-0.93,2.27,0,*55
1496228508.9,40759,20.0,74320.5,12.41,-0.77,0.79,0,*67
1496228510.12,40760,20.0,74320.3,12.39,0.17,0.25,0,*40
1496228511.35,40761,20.0,74322.0,12.39,1.21,0.13,0,*70
1496228512.57,40762,20.0,74316.3,12.39,1.09,-0.81,0,*5F
1496228513.83,40763,20.0,74312.5,12.41,1.55,-0.23,0,*50
1496228515.04,40764,20.0,74314.3,12.43,1.67,-0.15,0,*51
1496228516.28,40765,20.0,74318.0,12.49,1.01,-0.27,0,*5B
1496228517.48,40766,20.0,74318.8,12.51,1.51,0.01,0,*4D
1496228518.7,40767,20.0,74326.3,12.55,-0.81,-2.55,0,*77
1496228519.94,40768,20.0,74322.5,12.55,-0.89,-2.55,0,*70
1496228521.16,40769,20.0,74320.0,12.61,-2.47,-3.95,0,*4B
1496228522.38,40770,20.0,74320.8,12.63,-3.07,-3.79,0,*46
1496228523.59,40771,20.0,74322.0,12.63,-4.37,-3.95,0,*41
1496228524.79,40772,20.0,74320.5,12.65,-3.39,-2.27,0,*45
1496228526.02,40773,20.0,74320.3,12.75,-3.83,-2.31,0,*43
1496228527.28,40774,20.0,74318.0,12.79,-4.69,-2.59,0,*45
1496228528.55,40775,20.0,74314.3,12.79,-5.19,-2.47,0,*4D
1496228529.77,40776,20.0,74308.0,12.85,-5.77,-2.31,0,*44
1496228530.97,40777,20.0,74308.5,12.89,-4.33,-0.37,0,*7C
1496228532.17,40778,20.0,74308.0,12.95,-4.81,-0.03,0,*40
1496228533.41,40779,20.0,74308.8,13.01,-5.47,0.13,0,*5A
1496228534.67,40780,20.0,74306.0,13.05,-4.81,1.13,0,*62
1496228535.91,40781,20.0,74308.5,13.09,-4.65,1.93,0,*6D
1496228537.1,40782,20.0,74310.5,13.11,-4.25,3.25,0,*6C
1496228538.29,40783,20.0,74318.0,13.19,-3.75,4.49,0,*6A
1496228539.49,40784,20.0,74324.3,13.25,-3.27,5.23,0,*68
1496228540.72,40785,20.0,74330.5,13.31,-0.85,7.33,0,*54
1496228541.96,40786,20.0,74332.8,13.35,-2.67,5.07,0,*68
1496228543.19,40787,20.0,74332.3,13.41,-4.73,2.73,0,*6D
1496228544.43,40788,20.0,74336.0,13.41,-3.71,2.47,0,*60
1496228545.65,40789,20.0,74336.0,13.37,-4.21,0.55,0,*53
1496228546.87,40790,20.0,74338.5,13.35,-1.59,1.25,0,*65
1496228548.09,40791,20.0,74334.8,13.35,0.67,1.75,0,*70
1496228549.33,40792,20.0,74338.3,13.35,1.25,0.41,0,*72
1496228550.54,40793,20.0,74338.5,13.37,0.75,-1.71,0,*5A
1496228551.76,40794,20.0,74334.3,13.41,1.85,-2.15,0,*63
1496228553.01,40795,20.0,74330.5,13.43,1.47,-3.67,0,*6A
1496228554.22,40796,20.0,74324.8,13.43,-0.77,-6.85,0,*7F
1496228555.48,40797,20.0,74332.8,13.43,-1.13,-7.39,0,*4B
1496228556.75,40798,20.0,74326.0,13.43,-1.39,-7.39,0,*4C
1496228557.97,40799,20.0,74322.8,13.47,0.01,-5.69,0,*69
1496228559.17,40800,20.0,74322.5,13.53,-0.11,-5.55,0,*70
1496228560.39,40801,20.0,74324.5,13.59,-0.29,-5.11,0,*70
1496228561.61,40802,20.0,74324.5,13.67,-3.07,-7.69,0,*4C
1496228562.86,40803,20.0,74324.8,13.69,-5.81,-10.05,0,*77
1496228564.09,40804,20.0,74324.5,13.71,-4.93,-8.11,0,*47
1496228565.31,40805,20.0,74322.8,13.77,-4.53,-7.15,0,*47
1496228566.58,40806,20.0,74318.8,13.81,-6.19,-8.11,0,*4A
1496228567.81,40807,20.0,74318.8,13.85,-6.89,-8.37,0,*42
1496228569.04,40808,20.0,74316.5,13.89,-10.09,-10.79,0,*4D
1496228570.29,40809,20.0,74312.5,13.89,-11.33,-11.33,0,*4B
1496228571.53,40810,20.0,74314.5,13.87,-11.93,-10.97,0,*48
1496228572.79,40811,20.0,74314.5,13.87,-12.35,-10.41,0,*4D
1496228574.01,40812,20.0,74314.5,13.87,-14.61,-11.77,0,*4D
1496228575.21,40813,20.0,74314.3,13.87,-15.07,-11.45,0,*4C
1496228576.46,40814,20.0,74312.5,13.81,-14.83,-9.89,0,*79
1496228577.69,40815,20.0,74318.0,13.79,-14.89,-9.11,0,*74
1496228578.89,40816,20.0,74314.8,13.79,-15.29,-8.45,0,*7C
1496228580.14,40817,20.0,74312.5,13.77,-15.95,-8.03,0,*76
1496228581.39,40818,20.0,74316.0,13.77,-16.03,-6.97,0,*76
1496228582.67,40819,20.0,74312.0,13.73,-15.39,-5.19,0,*7C
1496228583.91,40820,20.0,74312.8,13.75,-14.47,-3.11,0,*76
1496228585.16,40821,20.0,74320.8,13.75,-11.63,-0.27,0,*42
1496228586.38,40822,20.0,74318.3,13.75,-11.63,-0.07,0,*73
1496228587.61,40823,20.0,74324.8,13.77,-12.21,-0.37,0,*46
1496228588.88,40824,20.0,74314.0,13.77,-11.33,0.25,0,*6F
1496228590.1,40825,20.0,74310.0,13.73,-10.97,0.01,0,*53
1496228591.28,40826,20.0,74314.3,13.71,-9.67,0.43,0,*53
1496228592.52,40827,20.0,74312.0,13.69,-8.41,1.17,0,*6E
1496228593.73,40828,20.0,74312.3,13.65,-7.87,0.97,0,*51
1496228594.97,40829,20.0,74310.5,13.63,-7.61,0.47,0,*53
1496228596.21,40830,20.0,74302.0,13.57,-5.15,2.31,0,*6E
1496228597.44,40831,20.0,74312.8,13.55,-4.41,2.21,0,*6C
1496228598.67,40832,20.0,74322.0,13.51,-3.91,1.89,0,*60
1496228599.93,40833,20.0,74322.3,13.51,-1.87,3.33,0,*67
1496228601.2,40834,20.0,74322.0,13.47,-1.99,2.59,0,*65
1496228602.4,40835,20.0,74320.0,13.43,-0.45,3.59,0,*51
1496228603.64,40836,20.0,74324.3,13.43,-0.97,2.61,0,*57
1496228604.82,40837,20.0,74328.3,13.37,-0.29,2.91,0,*5F
1496228606.06,40838,20.0,74328.3,13.35,0.87,3.67,0,*73
1496228607.31,40839,20.0,74328.0,13.35,1.51,3.97,0,*47
1496228608.51,40840,20.0,74324.0,13.33,1.47,3.59,0,*4A
1496228609.75,40841,20.0,74328.0,13.31,2.51,4.19,0,*4E
1496228610.98,40842,20.0,74324.5,13.29,3.19,4.63,0,*44
1496228612.19,40843,20.0,74334.0,13.25,2.65,3.71,0,*47
1496228613.43,40844,20.0,74330.8,13.25,3.41,4.31,0,*44
1496228614.64,40845,20.0,74326.3,13.23,4.11,4.79,0,*4D
1496228615.85,40846,20.0,74326.5,13.21,4.81,5.33,0,*4A
1496228617.1,40847,20.0,74324.8,13.21,4.37,4.75,0,*45
1496228618.33,40848,20.0,74322.8,13.21,4.27,4.59,0,*45
1496228619.54,40849,20.0,74318.5,13.17,4.85,5.15,0,*40
1496228620.77,40850,20.0,74320.0,13.19,4.59,4.67,0,*43
1496228622.03,40851,20.0,74322.3,13.17,5.05,5.05,0,*41
1496228623.23,40852,20.0,74322.0,13.11,4.23,4.01,0,*44
1496228624.47,40853,20.0,74312.8,13.11,4.59,4.31,0,*4B
1496228625.65,40854,20.0,74316.3,13.11,4.07,3.59,0,*4E
1496228626.86,40855,20.0,74316.8,13.09,4.49,3.93,0,*4A
1496228628.07,40856,20.0,74316.3,13.07,4.63,4.11,0,*42
1496228629.3,40857,20.0,74318.0,13.03,4.59,4.01,0,*4F
1496228630.51,40858,20.0,74316.3,13.03,4.01,3.29,0,*40
1496228631.69,40859,20.0,74316.0,13.03,4.49,3.89,0,*47
1496228632.88,40860,20.0,74312.0,13.03,4.07,3.63,0,*43
1496228634.12,40861,20.0,74316.8,13.01,3.93,3.49,0,*42
1496228635.34,40862,20.0,74312.0,12.99,2.61,2.51,0,*45
1496228636.59,40863,20.0,74316.3,12.97,2.73,2.85,0,*40
1496228637.79,40864,20.0,74316.8,12.95,3.19,3.55,0,*44
1496228639.02,40865,20.0,74316.5,12.91,3.37,3.85,0,*40
1496228640.2,40866,20.0,74316.5,12.89,3.63,4.15,0,*45
1496228641.41,40867,20.0,74316.0,12.89,4.19,4.79,0,*44
1496228642.62,40868,20.0,74314.3,12.89,3.71,4.15,0,*48
1496228643.86,40869,20.0,74318.3,12.87,4.27,4.75,0,*45
1496228645.04,40870,20.0,74318.8,12.85,4.15,4.53,0,*4A
1496228646.22,40871,20.0,74320.5,12.85,3.59,3.89,0,*44
1496228647.46,40872,20.0,74320.0,12.83,3.75,4.07,0,*4E
1496228648.66,40873,20.0,74320.8,12.81,3.97,4.33,0,*46
1496228649.9,40874,20.0,74320.8,12.81,2.51,2.69,0,*43
1496228651.08,40875,20.0,74326.0,12.77,3.29,3.55,0,*4B
1496228652.28,40876,20.0,74326.5,12.75,3.81,4.11,0,*4F
1496228653.46,40877,20.0,74324.5,12.73,3.85,4.23,0,*4D
1496228654.67,40878,20.0,74324.0,12.73,4.01,4.23,0,*49
1496228655.93,40879,20.0,74322.0,12.67,4.75,4.93,0,*45
1496228657.2,40880,20.0,74324.8,12.67,4.93,5.05,0,*45
1496228658.44,40881,20.0,74328.0,12.67,2.59,2.65,0,*45
1496228659.7,40882,20.0,74324.0,12.63,1.89,2.01,0,*4E
1496228660.93,40883,20.0,74318.0,12.59,2.09,2.43,0,*4B
1496228662.15,40884,20.0,74316.3,12.59,2.21,2.47,0,*42
1496228663.36,40885,20.0,74314.8,12.55,2.01,2.27,0,*4B
1496228664.6,40886,20.0,74314.5,12.51,1.85,2.13,0,*44
1496228665.83,40887,20.0,74318.0,12.45,2.01,2.27,0,*48
1496228667.03,40888,20.0,74320.3,12.43,1.59,1.83,0,*42
1496228668.27,40889,20.0,74320.0,12.39,1.71,1.85,0,*42
1496228669.48,40890,20.0,74320.5,12.35,1.83,2.09,0,*4C
1496228670.71,40891,20.0,74320.0,12.31,2.51,2.85,0,*41
1496228671.96,40892,20.0,74322.3,12.29,2.59,2.69,0,*41
1496228673.19,40893,20.0,74322.8,12.29,2.77,2.91,0,*4B
1496228674.43,40894,20.0,74322.0,12.23,3.23,3.49,0,*42
1496228675.66,40895,20.0,74326.0,12.23,3.45,3.71,0,*48
1496228676.86,40896,20.0,74322.5,12.21,4.27,4.49,0,*46
1496228678.07,40897,20.0,74324.3,12.21,4.49,4.85,0,*4F
1496228679.27,40898,20.0,74324.3,12.21,4.41,4.81,0,*4C
1496228680.48,40899,20.0,74326.3,12.19,3.11,3.29,0,*41
1496228681.71,40900,20.0,74330.0,12.19,2.05,2.25,0,*49
1496228682.95,40901,20.0,74328.0,12.15,1.93,2.09,0,*46
1496228684.18,40902,20.0,74326.0,12.11,2.39,2.69,0,*44
1496228685.38,40903,20.0,74326.3,12.07,2.13,2.31,0,*47
1496228686.61,40904,20.0,74324.8,12.07,3.45,3.67,0,*40
1496228687.81,40905,20.06,74326.0,11.99,3.45,3.59,0,*48
1496228689.09,40906,20.0,74322.5,12.01,4.71,4.75,0,*40
1496228690.27,40907,20.06,74322.0,11.99,5.41,5.41,0,*47
1496228691.48,40908,20.0,74314.0,12.01,5.41,5.41,0,*4A
1496228692.69,40909,20.0,74310.8,12.01,5.59,5.59,0,*4B
1496228693.9,40910,20.0,74308.8,12.01,5.33,5.33,0,*43
1496228695.13,40911,20.0,74314.5,12.05,5.01,4.89,0,*47
1496228696.34,40912,20.06,74314.8,12.01,4.85,4.85,0,*41
1496228697.52,40913,20.0,74314.8,11.99,4.81,4.85,0,*46
1496228698.77,40914,20.0,74314.0,11.99,4.71,4.71,0,*45
1496228700.04,40915,20.06,74320.8,12.01,4.71,4.63,0,*45
1496228701.25,40916,20.0,74322.0,11.99,4.59,4.53,0,*4D
1496228702.49,40917,20.0,74320.5,11.99,4.63,4.59,0,*4F
1496228703.76,40918,20.06,74324.8,11.97,4.71,4.71,0,*47
1496228704.96,40919,20.0,74326.0,11.97,5.37,5.37,0,*46
1496228706.19,40920,20.06,74328.3,11.97,4.93,4.81,0,*4F
1496228707.42,40921,20.0,74324.8,11.97,5.41,5.51,0,*4C
1496228708.63,40922,20.0,74322.3,11.97,5.15,5.07,0,*4D
1496228709.89,40923,20.0,74324.0,11.97,4.97,5.05,0,*45
1496228711.09,40924,20.0,74326.8,11.95,5.49,5.49,0,*4A
1496228712.3,40925,20.0,74324.0,11.95,5.33,5.45,0,*4A
1496228713.51,40926,20.0,74326.3,11.95,5.59,5.59,0,*48
1496228714.78,40927,20.0,74324.3,11.95,4.93,5.01,0,*43
1496228715.99,40928,20.0,74324.3,11.97,4.33,4.33,0,*44
1496228717.2,40929,20.0,74324.5,11.95,4.11,4.19,0,*4F
1496228718.38,40930,20.0,74320.8,11.93,2.91,2.91,0,*49
1496228719.63,40931,20.0,74322.8,11.91,3.33,3.33,0,*4A
1496228720.86,40932,20.0,74322.8,11.87,2.91,2.85,0,*4B
1496228722.07,40933,20.0,74320.8,11.85,2.65,2.55,0,*4E
1496228723.33,40934,20.0,74322.3,11.79,2.25,2.05,0,*4B
1496228724.54,40935,20.0,74322.3,11.73,3.03,2.91,0,*48
1496228725.81,40936,20.0,74322.5,11.71,3.67,3.71,0,*44
1496228727.05,40937,20.0,74320.3,11.69,3.79,3.71,0,*43
1496228728.26,40938,20.0,74320.8,11.69,3.79,3.81,0,*43
1496228729.44,40939,20.0,74320.3,11.65,3.63,3.63,0,*49
1496228730.68,40940,20.0,74316.0,11.65,3.75,3.71,0,*43
1496228731.89,40941,20.0,74312.3,11.63,3.75,3.63,0,*47
1496228733.16,40942,20.06,74310.5,11.61,3.75,3.75,0,*41
1496228734.4,40943,20.0,74306.5,11.63,4.67,4.67,0,*42
1496228735.63,40944,20.0,74310.3,11.61,4.75,4.53,0,*43
1496228736.87,40945,20.0,74304.8,11.61,4.05,4.07,0,*44
1496228738.07,40946,20.0,74310.5,11.61,4.19,4.19,0,*45
1496228739.28,40947,20.0,74310.8,11.61,4.19,4.19,0,*44
1496228740.46,40948,20.0,74314.3,11.59,4.23,4.15,0,*45
1496228741.66,40949,20.06,74320.0,11.57,3.63,3.55,0,*4A
1496228742.87,40950,20.0,74320.3,11.51,2.81,2.65,0,*4B
1496228744.11,40951,20.0,74318.8,11.51,2.81,2.77,0,*49
1496228745.31,40952,20.0,74318.5,11.47,3.59,3.53,0,*4E
1496228746.5,40953,20.0,74316.8,11.47,2.99,2.99,0,*45
1496228747.68,40954,20.0,74316.5,11.47,4.27,4.27,0,*42
1496228748.91,40955,20.0,74318.5,11.43,4.01,3.97,0,*4F
1496228750.14,40956,20.0,74316.8,11.43,3.97,3.97,0,*44
1496228751.33,40957,20.0,74318.0,11.43,4.11,4.07,0,*42
1496228752.54,40958,20.0,74316.5,11.41,4.57,4.53,0,*4C
1496228753.78,40959,20.0,74322.5,11.41,4.85,4.93,0,*4E
1496228755.05,40960,20.0,74322.0,11.41,4.93,5.01,0,*49
1496228756.23,40961,20.06,74320.8,11.43,5.15,5.15,0,*40
1496228757.45,40962,20.0,74322.8,11.41,5.33,5.33,0,*41
1496228758.7,40963,20.0,74320.8,11.45,5.77,5.81,0,*4D
1496228759.93,40964,20.0,74322.0,11.45,5.81,5.99,0,*4A
1496228761.19,40965,20.0,74322.8,11.45,5.73,5.81,0,*4F
1496228762.46,40966,20.0,74322.0,11.45,4.71,4.75,0,*45
1496228763.73,40967,20.06,74326.3,11.45,4.59,4.63,0,*49
1496228764.96,40968,20.06,74324.3,11.45,4.81,4.93,0,*4C
1496228766.16,40969,20.06,74326.5,11.43,5.19,5.19,0,*48
1496228767.42,40970,20.0,74322.3,11.45,4.75,4.75,0,*46
1496228768.65,40971,20.0,74322.5,11.45,5.51,5.45,0,*42
1496228769.86,40972,20.0,74324.0,11.45,4.81,4.81,0,*44
1496228771.07,40973,20.06,74324.5,11.43,4.81,4.79,0,*44
1496228772.3,40974,20.0,74320.8,11.43,4.79,4.79,0,*44
1496228773.52,40975,20.06,74320.3,11.43,4.89,4.93,0,*4E
1496228774.71,40976,20.06,74322.5,11.43,5.19,5.19,0,*46
1496228775.93,40977,20.0,74318.3,11.45,5.07,5.07,0,*41
1496228777.11,40978,20.0,74316.8,11.43,5.49,5.49,0,*48
1496228778.3,40979,20.0,74314.3,11.43,5.99,6.11,0,*4A
1496228779.54,40980,20.0,74310.5,11.45,5.73,5.67,0,*4C
1496228780.77,40981,20.06,74314.8,11.45,5.81,6.03,0,*41
1496228782.03,40982,20.06,74314.0,11.49,5.85,5.89,0,*4B
1496228783.26,40983,20.0,74310.5,11.49,6.03,6.13,0,*47
1496228784.45,40984,20.0,74314.0,11.47,6.11,6.21,0,*4C
1496228785.65,40985,20.0,74320.5,11.49,6.07,6.25,0,*40
1496228786.88,40986,20.06,74324.5,11.49,6.13,6.25,0,*46
1496228788.08,40987,20.0,74320.5,11.51,6.21,6.33,0,*48
1496228789.33,40988,20.0,74322.5,11.53,5.81,5.73,0,*4B
1496228790.54,40989,20.06,74324.3,11.51,5.71,5.73,0,*47
1496228791.75,40990,20.0,74326.5,11.53,6.11,6.21,0,*4C
1496228792.96,40991,20.0,74324.0,11.53,5.99,5.99,0,*4E
1496228794.21,40992,20.06,74326.8,11.57,5.73,5.73,0,*49
1496228795.46,40993,20.0,74324.0,11.57,5.73,5.77,0,*4C
1496228796.67,40994,20.06,74326.5,11.57,5.33,5.29,0,*44
1496228797.93,40995,20.0,74324.8,11.53,4.79,4.79,0,*4A
1496228799.14,40996,20.0,74324.8,11.53,5.63,5.59,0,*40
1496228800.35,40997,20.0,74324.8,11.53,5.59,5.59,0,*48
1496228801.57,40998,20.0,74324.8,11.53,5.99,5.99,0,*47
1496228802.82,40999,20.06,74328.3,11.53,6.17,6.17,0,*46
1496228804.03,41000,20.0,74324.5,11.53,6.07,6.07,0,*4E
1496228805.26,41001,20.0,74324.8,11.57,5.99,5.93,0,*41
1496228806.48,41002,20.0,74326.0,11.59,5.11,5.01,0,*47
1496228807.66,41003,20.0,74326.0,11.59,4.45,4.41,0,*43
1496228808.86,41004,20.06,74328.0,11.57,4.85,4.85,0,*4E
1496228810.07,41005,20.0,74324.5,11.57,5.63,5.67,0,*4B
1496228811.32,41006,20.0,74328.8,11.57,5.73,5.77,0,*48
1496228812.58,41007,20.06,74324.5,11.57,6.35,6.53,0,*4D
1496228813.79,41008,20.06,74328.0,11.59,6.13,6.29,0,*45
1496228815.0,41009,20.06,74330.3,11.59,5.89,6.03,0,*4C
1496228816.23,41010,20.0,74324.8,11.61,5.77,6.07,0,*4A
1496228817.49,41011,20.06,74326.8,11.61,6.17,6.35,0,*4F
1496228818.72,41012,20.06,74328.0,11.63,6.39,6.61,0,*43
1496228819.95,41013,20.0,74326.3,11.65,6.51,6.61,0,*4A
1496228821.18,41014,20.06,74326.5,11.65,6.61,6.69,0,*46
1496228822.43,41015,20.0,74328.0,11.67,6.61,6.53,0,*4C
1496228823.64,41016,20.0,74328.0,11.65,6.17,5.99,0,*49
1496228824.88,41017,20.06,74330.5,11.69,6.17,5.93,0,*4E
1496228826.1,41018,20.0,74328.5,11.71,5.99,5.59,0,*4B
1496228827.35,41019,20.06,74330.3,11.71,6.13,5.67,0,*46
1496228828.59,41020,20.0,74328.0,11.71,6.13,5.49,0,*40
1496228829.77,41021,20.0,74326.3,11.73,5.71,4.89,0,*49
1496228830.95,41022,20.06,74332.5,11.73,5.49,4.53,0,*46
1496228832.13,41023,20.06,74332.5,11.73,5.37,4.33,0,*48
1496228833.34,41024,20.06,74332.8,11.73,4.89,3.97,0,*42
1496228834.6,41025,20.06,74334.3,11.75,4.97,4.05,0,*46
1496228835.81,41026,20.06,74338.8,11.75,4.81,4.23,0,*46
1496228837.04,41027,20.06,74336.5,11.79,4.49,3.79,0,*47
1496228838.28,41028,20.0,74336.5,11.79,4.05,3.55,0,*4E
1496228839.48,41029,20.0,74332.3,11.81,3.55,3.33,0,*4A
1496228840.68,41030,20.0,74338.3,11.85,3.97,3.85,0,*45
1496228841.89,41031,20.06,74346.5,11.89,3.79,4.49,0,*4F
1496228843.09,41032,20.0,74342.8,11.93,0.97,2.89,0,*7E
1496228844.3,41033,20.06,74338.8,11.95,-0.45,2.65,0,*59
1496228845.55,41034,20.06,74336.3,11.95,0.51,3.97,0,*7A
1496228846.79,41035,20.06,74338.3,11.99,2.47,5.93,0,*40
1496228848.04,41036,20.06,74330.0,12.05,2.09,5.73,0,*41
1496228849.24,41037,20.0,74330.8,12.09,3.25,7.01,0,*44
1496228850.51,41038,20.0,74330.5,12.17,1.37,5.01,0,*47
1496228851.77,41039,20.06,74324.8,12.17,0.47,3.75,0,*75
1496228852.99,41040,20.06,74320.5,12.17,-0.29,2.25,0,*5A
1496228854.22,41041,20.06,74322.0,12.17,-1.25,0.79,0,*5D
1496228855.47,41042,20.0,74326.0,12.15,-2.03,-0.27,0,*7D
1496228856.68,41043,20.06,74328.0,12.13,-1.75,-0.41,0,*78
1496228857.93,41044,20.06,74320.8,12.11,-1.39,-0.27,0,*75
1496228859.17,41045,20.0,74324.8,12.09,-0.97,-0.11,0,*4D
1496228860.39,41046,20.0,74330.5,12.07,-1.09,-0.41,0,*73
1496228861.63,41047,20.06,74326.8,12.01,-1.13,-0.77,0,*7A
1496228862.85,41048,20.06,74322.0,12.01,-0.41,-0.19,0,*4B
1496228864.09,41049,20.0,74318.0,12.01,0.29,0.33,0,*4C
1496228865.35,41050,20.06,74326.0,12.01,-0.27,-0.27,0,*4F
1496228866.57,41051,20.06,74320.5,11.97,-0.33,0.33,0,*6F
1496228867.83,41052,20.06,74322.5,11.97,-1.09,0.13,0,*56
1496228869.03,41053,20.0,74322.5,11.97,-0.69,1.05,0,*56
1496228870.29,41054,20.06,74318.3,11.95,-0.89,0.75,0,*6B
1496228871.5,41055,20.06,74320.8,11.93,-1.75,-0.27,0,*74
1496228872.69,41056,20.06,74318.5,11.89,0.05,1.25,0,*49
1496228873.91,41057,20.0,74318.5,11.89,0.87,1.89,0,*74
1496228875.14,41058,20.0,74320.8,11.89,1.51,2.13,0,*41
1496228876.37,41059,20.06,74320.3,11.89,1.47,2.13,0,*47
1496228877.6,41060,20.06,74314.8,11.89,1.85,2.51,0,*45
1496228878.83,41061,20.06,74306.3,11.87,2.25,2.95,0,*4B
1496228880.09,41062,20.06,74302.0,11.87,3.33,3.79,0,*4D
1496228881.34,41063,20.06,74300.3,11.91,4.01,4.31,0,*46
1496228882.54,41064,20.06,74298.0,11.89,2.61,2.69,0,*43
1496228883.78,41065,20.0,74294.0,11.89,1.97,1.85,0,*49
1496228884.97,41066,20.0,74294.0,11.89,1.97,1.41,0,*42
1496228886.2,41067,20.06,74296.5,11.89,1.67,0.87,0,*77
1496228887.42,41068,20.06,74304.3,11.87,2.73,1.05,0,*4B
1496228888.63,41069,20.06,74312.0,11.89,2.51,-0.29,0,*56
1496228889.84,41070,20.06,74314.3,11.89,2.51,-1.67,0,*65
1496228891.08,41071,20.06,74320.0,11.87,1.97,-4.33,0,*67
1496228892.36,41072,20.0,74312.0,11.87,2.51,-5.03,0,*6F
1496228893.59,41073,20.06,74314.0,11.89,1.47,-7.35,0,*63
1496228894.83,41074,20.0,74312.8,11.91,1.09,-8.37,0,*6A
1496228896.02,41075,20.06,74318.0,11.99,-0.65,-9.31,0,*72
1496228897.3,41076,20.0,74312.3,12.05,-2.63,-10.79,0,*77
1496228898.51,41077,20.06,74312.3,12.13,-4.99,-12.43,0,*79
1496228899.79,41078,20.06,74314.0,12.13,-7.61,-14.01,0,*72
1496228901.0,41079,20.06,74308.3,12.19,-11.41,-16.45,0,*4E
1496228902.28,41080,20.0,74304.0,12.21,-12.71,-15.85,0,*4C
1496228903.53,41081,20.06,74306.0,12.21,-12.11,-12.93,0,*4B
1496228904.79,41082,20.06,74312.0,12.27,-12.83,-11.59,0,*40
1496228906.04,41083,20.0,74306.0,12.29,-15.15,-11.85,0,*46
1496228907.29,41084,20.06,74308.0,12.31,-16.31,-11.07,0,*47
1496228908.52,41085,20.06,74308.3,12.29,-14.33,-7.83,0,*74
1496228909.74,41086,20.06,74308.5,12.29,-11.11,-4.49,0,*77
1496228910.97,41087,20.06,74312.3,12.31,-12.11,-6.39,0,*79
1496228912.19,41088,20.06,74308.5,12.29,-11.11,-6.55,0,*76
1496228913.44,41089,20.06,74302.3,12.23,-9.37,-6.63,0,*45
1496228914.63,41090,20.06,74298.8,12.19,-9.19,-8.41,0,*46
1496228915.84,41091,20.06,74300.3,12.15,-8.21,-10.01,0,*7C
1496228917.09,41092,20.06,74298.5,12.11,-5.85,-9.49,0,*4C
1496228918.3,41093,20.06,74298.0,12.13,-3.19,-8.55,0,*40
1496228919.54,41094,20.06,74298.3,12.15,-2.51,-9.57,0,*4F
1496228920.77,41095,20.06,74302.3,12.21,-3.95,-12.25,0,*7F
1496228922.02,41096,20.06,74302.5,12.23,-5.65,-13.33,0,*71
1496228923.24,41097,20.0,74306.3,12.33,-6.73,-12.97,0,*7A
1496228924.49,41098,20.06,74310.5,12.37,-9.41,-13.93,0,*7A